Regional Weather Roundup
Issued by NWS Sterling, VA

Home | Current Version | Previous Version | Text Only | Print | Product List | Glossary On
Versions: 1 2 3 4 5 6 7 8 9 10 11 12 13 14 15 16 17 18 19 20 21 22 23 24 25 26 27 28 29 30 31 32 33 34 35 36 37 38 39 40 41 42 43 44 45 46 47 48 49 50
000
ASUS41 KLWX 300510
RWRLWX

REGIONAL WEATHER ROUNDUP
NATIONAL WEATHER SERVICE BALTIMORE MD/WASHINGTON DC
100 AM EDT MON MAR 30 2015

Note: "FAIR" indicates few or no clouds below 12,000 feet
with no significant weather and/or obstructions to visibility.
 TC=TEMPERATURE CELSIUS

 * =Non NWS site. Station does not report precipitation (e.g. rain,
    snow, etc.), thunder, or fog.

DCZ001-MDZ009-015-VAZ040>042-051-053>054-300600-
WASHINGTON METRO

CITY           SKY/WX    TMP DP  RH WIND       PRES   REMARKS
WASHINGTON NAT CLOUDY    44  20  38 S14       30.10F
DULLES         CLOUDY    43  10  26 S13       30.07F
ANDREWS AFB    CLOUDY    38  17  41 S12       30.09F
FT BELVOIR     CLOUDY    42  12  30 SE8       30.09F
QUANTICO       CLOUDY    45  24  43 S17       30.11F
COLLEGE PARK*  CLOUDY    41  12  30 S6        30.10F
LEESBURG*      CLOUDY    43  18  36 S8        30.07F
MANASSAS*      CLOUDY    43  14  31 S10G16    30.08F
GAITHERSBURG*  CLOUDY    39  10  30 S7        30.11F

$$

MDZ006>007-011-014-300600-
BALTIMORE METRO

CITY           SKY/WX    TMP DP  RH WIND       PRES   REMARKS
BWI AIRPORT    CLOUDY    38  13  35 VRB3      30.09F
MARTIN STATE   CLOUDY    39  32  75 SE14G23   30.13F
ANNAPOLIS      CLOUDY    38  25  59 S10       30.11F

$$

MDZ012-015-019>023-300600-
MARYLAND EASTERN SHORE

CITY           SKY/WX    TMP DP  RH WIND       PRES   REMARKS
OCEAN CITY     PTCLDY    37  22  54 SW10      30.20F
SALISBURY      PTCLDY    32  20  61 S9        30.19F WCI  24
BAY BRIDGE AP*   N/A     37  27  65 S13       30.13F
CAMBRIDGE*     CLOUDY    37  28  70 S8        30.15F
EASTON*        CLOUDY    39  25  57 S10       30.18F

$$

MDZ017>025-300600-
SOUTHERN MARYLAND

CITY           SKY/WX    TMP DP  RH WIND       PRES   REMARKS
PATUXENT RIVER CLOUDY    39  21  48 S10       30.15F
ST INIGOES     CLOUDY    39  23  52 S7        30.16F
LEONARDTOWN*   CLOUDY    37  21  52 S5        30.16F

$$

MDZ003>005-300600-
NORTH CENTRAL MARYLAND

CITY           SKY/WX    TMP DP  RH WIND       PRES   REMARKS
FREDERICK*     CLOUDY    43   3  19 S6        30.09F
HAGERSTOWN APT CLOUDY    42   8  24 S10       30.02S
WESTMINSTER*   CLOUDY    37   3  23 S8G17     30.05F

$$

MDZ501>502-300600-
WESTERN MARYLAND

CITY           SKY/WX    TMP DP  RH WIND       PRES   REMARKS
OAKLAND*       CLOUDY    37  18  44 W21G30    29.92R WCI  27
CUMBERLAND*    CLOUDY    41  30  65 N5        30.02S

$$

VAZ025>031-300600-
SHENANDOAH VALLEY

CITY           SKY/WX    TMP DP  RH WIND       PRES   REMARKS
WINCHESTER*    CLOUDY    43   1  17 S9        30.01F
FRONT ROYAL*   CLOUDY    43  12  28 S6        30.00F
LURAY*         FAIR      45  14  29 SW7       30.03R
NEW MARKET*    MOCLDY    42  13  31 SW5       30.02R
STAUNTON*      MOCLDY    43  11  26 S5        30.05S
WAYNESBORO*    FAIR      42  11  28 CALM      30.03F

$$

WVZ021-048>050-054>055-300600-
EASTERN WEST VIRGINIA PANHANDLE

CITY           SKY/WX    TMP DP  RH WIND       PRES   REMARKS
MARTINSBURG    CLOUDY    44  18  35 S8        30.02F
PETERSBURG*    CLOUDY    46   3  17 S5G16     29.97F

$$

VAZ036>039-050-300600-
CENTRAL FOOTHILLS

CITY           SKY/WX    TMP DP  RH WIND       PRES   REMARKS
CHARLOTTESVILL CLOUDY    43  12  28 S13       30.07F
CULPEPER*      CLOUDY    45  12  26 S7        30.08F
ORANGE*        CLOUDY    45  12  26 S8        30.09F
GORDONSVILLE*  MOCLDY    42  14  31 SW8       30.08F
WARRENTON*     CLOUDY    44  21  40 S8        30.08F

$$

VAZ055>057-300600-
NORTH AND CENTRAL PIEDMONT

CITY           SKY/WX    TMP DP  RH WIND       PRES   REMARKS
FREDERICKSBRG* LGT RAIN  44  14  30 SE8       30.10F
STAFFORD*      FLURRIES  41   9  26 S7        30.14F

$$

NCZ024-NYZ072-PAZ021-071-VAZ022-071-300600-
OTHER REGIONAL OBSERVATIONS

CITY           SKY/WX    TMP DP  RH WIND       PRES   REMARKS
NEW YORK CITY  MOCLDY    40  11  30 VRB6G20   30.13F
PHILADELPHIA   CLOUDY    37  15  40 S7        30.14F
PITTSBURGH     CLOUDY    36  33  89 SW8       29.92F
ROANOKE        PTCLDY    44  12  27 CALM      30.08F
RICHMOND       CLOUDY    41  16  36 S9        30.17F
RALEIGH        PTCLDY    42  17  36 SW12      30.20F

$$

ANZ530>537-300600-
MARINE OBSERVATIONS

STATION/POSITION TIME  TEMP    WIND        PRES
                       AIR SEA DIR/SP/G
                 (UTC) (F)     (DEG/KT/KT) (MB)
THOMAS PT LIGHT  0500                        N/A
BALT KEY BRIDGE  0400   40     170/ 13/ 14 1020.7S
COVE POINT       0400   37     200/ 13/ 15 1021.8F
LEWISETTA        0406   38 43              1022.2F
SOLOMONS ISLAND  0400      43                N/A
PINEY POINT      0424          200/ 10/ 11   N/A

$$




USA.gov is the U.S. government's official web portal to all federal, state and local government web resources and services.